This demonstration page uses our WeatherBlox Daily Observations layout. Learn more.

41.55636, -103.73856

Hourly Observations for December 20, 2016

Temp ( °F °C ) Dew Point ( °F °C ) Humidity (%) Winds ( mph kmh ) Pressure ( in mb ) Visibility ( mi km ) Precip ( " mm )
12:05 am 00:05 Clear 40 4.4 18 -7.8 41 41 NNW 12 19 30.18 1022 10 16.0934 0 0
12:53 am 00:53 Clear 35 1.7 19 -7.2 52 52 NNW 10 17 30.19 1023 10 16.0934 0 0
1:53 am 01:53 Clear 38 3.3 16 -8.9 41 41 WNW 12 19 30.2 1023 10 16.0934 0 0
2:53 am 02:53 Clear 30 -1.1 17 -8.3 58 58 WNW 3 6 30.23 1024 10 16.0934 0 0
3:53 am 03:53 Clear 30 -1.1 16 -8.9 56 56 W 3 6 30.25 1024 10 16.0934 0 0
4:53 am 04:53 Clear 27 -2.8 15 -9.4 61 61 NW 10 17 30.27 1025 10 16.0934 0 0
5:53 am 05:53 Clear 27 -2.8 15 -9.4 61 61 Calm 30.27 1025 10 16.0934 0 0
6:53 am 06:53 Clear 24 -4.4 14 -10 65 65 SE 9 15 30.26 1025 10 16.0934 0 0
7:53 am 07:53 Sunny 22 -5.6 14 -10 71 71 ESE 3 6 30.26 1025 10 16.0934 0 0
8:53 am 08:53 Sunny 29 -1.7 18 -7.8 63 63 Calm 30.25 1024 10 16.0934 0 0
9:53 am 09:53 Sunny 34 1.1 21 -6.1 59 59 ESE 3 6 30.23 1024 10 16.0934 0 0
10:53 am 10:53 Sunny 37 2.8 23 -5 57 57 E 9 15 30.19 1022 10 16.0934 0 0
11:53 am 11:53 Sunny 39 3.9 26 -3.3 60 60 E 9 15 30.14 1021 10 16.0934 0 0
12:53 pm 12:53 Sunny 43 6.1 28 -2.2 56 56 E 7 11 30.1 1019 10 16.0934 0 0
1:53 pm 13:53 Sunny 44 6.7 30 -1.1 58 58 E 5 7 30.05 1018 10 16.0934 0 0
2:53 pm 14:53 Sunny 46 7.8 29 -1.7 51 51 undefined N/A 30.06 1018 10 16.0934 0 0
3:53 pm 15:53 Sunny 50 10 28 -2.2 43 43 WNW 10 17 30.02 1017 10 16.0934 0 0
4:53 pm 16:53 Clear 44 6.7 28 -2.2 53 53 SW 5 7 30.03 1017 10 16.0934 0 0
5:53 pm 17:53 Clear 48 8.9 28 -2.2 46 46 W 6 9 30 1016 10 16.0934 0 0
6:53 pm 18:53 Clear 46 7.8 29 -1.7 51 51 W 8 13 30 1016 10 16.0934 0 0
7:53 pm 19:53 Clear 46 7.8 29 -1.7 51 51 W 8 13 29.98 1015 10 16.0934 0 0
8:53 pm 20:53 Clear 41 5 29 -1.7 62 62 NW 7 11 29.97 1015 10 16.0934 0 0
9:53 pm 21:53 Clear 43 6.1 27 -2.8 53 53 NNW 7 11 29.94 1014 10 16.0934 0 0
10:53 pm 22:53 Clear 42 5.6 26 -3.3 53 53 W 8 13 29.95 1014 10 16.0934 0 0
11:53 pm 23:53 Clear 51 10.6 24 -4.4 35 35 W 20 31 29.92 1013 10 16.0934 0 0

Powered by AerisWeather